Wind_Speed
35 33 30 29 29 27 27 27 25 25 24 23 23 20 21 19 14 13 13 11 11 11 11 12 11 10 7 7 8 8 9 10 11 12 15 16 15 17 18 18 17 17 17
37 35 32 30 27 26 28 29 29 28 26 24 21 18 19 18 16 15 14 12 12 13 12 13 12 11 9 8 8 8 9 8 11 14 17 17 16 17 16 17 18 18 18
40 35 29 28 30 27 29 29 29 28 24 22 17 16 18 18 18 17 18 15 15 14 12 13 12 13 11 11 10 9 10 11 14 16 17 17 15 15 16 18 18 19 19
44 31 30 28 27 29 29 30 30 27 23 20 15 19 20 22 21 20 18 15 15 13 13 14 14 14 13 12 11 10 13 15 16 19 17 17 16 15 16 17 18 19 18
28 26 31 31 32 29 29 30 30 27 24 19 20 22 24 23 21 20 19 16 16 15 15 15 15 15 12 12 12 13 14 18 20 19 19 17 17 17 17 18 18 19 20
26 29 30 26 22 22 30 32 30 28 24 22 21 23 24 24 22 22 19 20 18 17 16 16 15 14 10 12 11 14 16 19 21 18 17 16 15 14 14 15 16 17 20
27 22 18 21 25 28 30 30 30 28 28 23 20 21 21 22 23 21 19 20 23 19 16 13 14 10 9 10 11 15 18 20 17 16 14 14 15 17 18 19 19 19 20
18 20 24 27 23 22 22 22 23 29 37 30 23 20 19 20 21 20 22 23 19 15 14 10 8 8 9 9 13 16 19 18 15 17 19 19 21 22 21 21 22 23 24
14 22 24 26 24 23 24 21 23 28 28 31 26 21 20 23 27 24 22 20 18 14 9 7 9 8 9 12 14 17 14 14 17 19 20 23 24 24 25 25 26 27 28
14 21 20 24 26 28 28 31 30 32 34 31 27 22 28 30 32 29 26 18 13 12 10 9 9 10 12 14 14 12 13 16 19 21 24 25 28 29 29 31 33 34 35
19 21 23 24 25 24 25 31 33 39 35 52 33 28 27 38 29 29 23 15 14 12 10 8 8 9 11 12 11 13 16 19 22 25 29 31 32 33 34 35 35 35 36
24 28 23 25 27 29 26 35 41 39 30 30 25 30 35 35 38 27 19 16 13 12 10 8 8 9 11 11 13 16 20 23 26 28 32 33 35 36 37 37 39 41 41
28 25 27 28 25 21 28 26 37 34 29 30 36 39 45 37 30 24 16 14 12 10 9 8 12 11 11 13 16 20 24 27 30 33 35 36 37 38 39 39 40 40 40
31 30 29 32 31 30 23 24 29 38 38 41 21 35 39 29 23 17 18 12 11 10 10 11 11 12 14 17 21 25 28 31 32 31 35 37 38 39 39 40 38 36 37
30 30 26 25 29 30 28 37 34 37 30 21 30 26 29 23 17 16 13 12 10 10 12 12 12 13 16 20 24 27 30 33 35 34 38 39 40 40 41 40 41 41 39
28 25 22 24 26 28 30 31 31 25 18 19 24 27 21 19 16 14 13 14 13 13 12 13 13 17 20 23 27 30 35 38 39 39 40 39 39 41 41 43 44 44 44
27 29 31 31 26 24 17 14 11 12 14 20 21 19 17 16 13 11 10 12 12 13 14 14 17 21 25 28 31 35 38 40 39 41 42 41 40 43 44 45 46 46 47
17 15 15 15 15 15 13 14 14 15 16 14 14 12 12 10 8 12 13 13 13 15 16 17 22 25 28 29 32 36 39 37 40 42 42 42 44 43 44 45 46 48 47
12 11 11 11 12 10 8 9 8 6 6 8 10 10 10 9 10 12 13 14 15 16 19 22 26 29 30 31 34 37 39 40 41 40 43 46 47 49 47 46 48 49 47
11 9 8 7 7 5 3 3 4 4 5 8 10 12 9 9 13 16 15 17 17 20 23 26 30 33 32 32 36 39 40 41 43 43 46 48 48 50 51 49 48 46 47
6 6 5 4 4 5 6 7 8 10 11 13 15 15 12 13 15 16 17 18 22 25 28 31 36 35 30 33 39 44 48 46 41 43 52 54 55 55 52 49 48 51 51
5 5 5 4 3 5 6 7 9 11 13 15 15 14 17 18 17 17 18 23 26 31 35 37 39 38 36 36 39 45 52 54 54 52 56 62 61 59 56 52 51 49 52
7 6 5 5 5 6 8 9 9 11 12 14 16 17 18 18 19 20 22 27 28 33 37 38 37 37 39 39 45 52 56 56 58 64 64 69 66 61 57 56 58 58 61
9 8 8 8 9 9 9 11 11 12 14 17 18 20 20 23 25 25 27 30 31 34 34 34 37 39 43 46 47 54 62 56 55 58 74 75 70 62 59 58 58 61 68
12 13 13 13 13 13 13 14 15 15 17 18 22 24 25 28 29 32 32 32 33 36 38 38 39 41 43 44 54 60 60 55 56 64 73 68 70 67 63 59 63 67 72
18 18 18 18 19 18 18 17 18 18 17 16 18 22 28 32 35 38 36 33 36 41 41 47 38 42 49 45 53 56 55 54 73 76 77 68 65 65 64 65 69 74 78
Wind_Direction
222 228 232 235 237 241 245 249 250 253 257 257 256 260 260 259 259 267 280 284 292 284 279 270 262 267 270 290 298 307 306 315 324 330 336 331 325 314 309 304 300 302 307
217 222 223 231 235 239 244 247 249 250 251 251 261 263 263 257 256 266 282 282 287 280 272 274 272 271 275 278 281 293 306 313 309 318 324 316 311 317 309 304 299 295 295
218 216 222 231 235 236 240 243 244 244 247 257 265 268 263 258 259 259 271 277 279 277 275 276 275 272 273 275 280 290 301 300 307 310 319 317 315 311 314 313 310 303 298
229 226 229 229 226 230 235 240 241 244 249 255 258 263 262 260 258 260 261 279 277 272 278 273 272 265 261 268 279 291 297 302 304 315 312 314 310 313 312 308 303 303 305
227 226 225 219 216 227 236 243 246 250 257 263 260 256 261 261 264 262 259 272 274 265 274 267 271 263 260 269 285 290 299 306 311 313 310 307 313 311 308 304 302 303 302
230 229 229 221 231 233 243 249 255 261 268 262 269 263 256 260 258 256 257 278 271 258 269 273 273 265 261 278 292 298 303 306 310 310 309 317 318 318 319 317 311 308 301
194 219 237 248 245 244 252 256 262 264 263 260 266 251 250 254 256 256 262 277 266 264 270 265 266 257 259 275 289 293 296 300 305 308 313 313 316 316 318 316 312 307 302
208 227 238 243 247 247 256 253 251 255 252 246 264 254 251 253 258 261 269 280 264 259 268 253 233 244 264 269 283 289 295 296 307 315 317 316 317 315 315 313 310 308 306
226 239 244 249 249 237 242 248 253 259 252 266 252 249 244 251 251 253 261 271 259 264 216 204 233 241 255 273 285 297 293 301 313 316 318 315 313 312 310 307 305 304 301
248 247 238 239 247 244 245 244 253 263 259 265 254 252 241 248 251 262 260 254 238 196 199 210 225 248 263 283 283 276 297 310 310 313 314 314 313 312 313 311 308 307 304
251 259 260 257 255 249 263 246 246 255 282 246 251 272 271 247 258 258 239 206 187 187 199 217 240 261 270 261 273 295 306 309 314 316 318 317 315 316 314 310 308 306 303
264 252 252 251 255 265 292 255 248 250 256 241 261 262 268 267 255 243 215 176 184 192 212 244 273 271 255 278 295 307 312 316 319 320 318 317 316 315 312 309 309 307 303
253 259 257 252 256 267 271 300 233 282 256 260 286 273 256 245 228 222 175 197 195 215 232 244 267 259 275 293 306 313 317 318 320 322 322 320 317 314 310 306 303 302 298
260 261 256 255 260 257 252 249 258 272 270 268 266 268 247 225 218 189 166 193 206 227 244 248 246 272 290 305 311 314 318 320 319 321 319 317 314 312 309 307 302 298 297
258 262 263 249 256 258 249 249 258 250 252 245 252 235 226 227 166 153 181 204 224 238 232 237 262 286 299 305 312 317 314 319 320 318 322 316 313 311 308 304 300 299 297
259 252 255 245 248 239 245 254 245 251 231 220 227 217 185 147 158 172 194 220 229 219 229 256 279 290 302 310 310 314 318 319 321 318 313 312 308 306 305 300 299 299 298
247 251 235 228 225 226 212 213 206 178 173 172 152 143 151 173 182 201 216 212 210 230 253 272 291 300 307 310 312 316 314 319 315 314 309 308 307 308 305 302 300 299 297
148 119 124 126 138 119 110 124 124 139 147 136 138 165 182 189 205 211 202 212 229 250 269 291 295 302 304 308 315 312 313 316 315 309 306 309 311 308 305 304 301 300 298
129 134 135 139 131 129 135 124 123 113 114 142 171 193 203 223 226 210 217 231 247 270 283 290 293 299 302 309 312 311 313 314 312 308 306 304 307 310 309 307 305 303 299
158 159 158 133 138 153 154 171 165 187 191 198 209 222 233 246 225 220 231 250 266 274 282 289 294 300 302 310 310 314 315 312 310 317 316 313 312 312 312 310 306 302 298
176 186 194 184 189 204 215 225 219 224 224 227 235 237 245 239 227 232 246 261 272 279 284 289 294 297 297 308 317 314 314 306 304 308 320 318 315 313 311 309 306 305 302
229 236 235 246 253 246 253 252 249 246 243 247 249 246 237 227 233 245 261 273 278 284 287 290 289 290 294 293 302 306 313 311 309 309 317 318 316 313 311 307 304 305 308
250 258 269 274 279 286 297 301 298 285 277 264 250 241 236 238 245 256 267 277 284 286 285 283 286 290 295 294 302 309 311 312 313 313 314 316 314 312 309 307 302 300 305
257 266 273 283 290 292 288 283 281 280 278 266 257 253 253 250 251 260 267 274 280 285 289 289 290 296 299 299 304 309 312 303 307 301 309 309 311 310 309 309 306 306 307
266 268 272 279 283 290 294 292 283 275 272 271 267 267 272 268 262 267 270 275 284 289 297 295 294 297 302 302 308 310 308 294 298 303 310 309 309 309 309 307 308 309 309
263 268 274 279 284 283 287 292 286 275 277 278 274 276 278 274 271 271 273 276 284 292 298 300 294 301 298 299 305 303 294 294 305 304 307 305 307 307 308 311 312 311 310
Height
5816 5819 5822 5825 5826 5828 5829 5831 5832 5833 5834 5834 5834 5833 5833 5834 5835 5836 5836 5836 5836 5836 5835 5836 5834 5834 5833 5835 5836 5836 5836 5836 5835 5834 5833 5832 5830 5830 5830 5830 5829 5828 5827
5810 5812 5816 5820 5822 5824 5826 5827 5828 5829 5830 5830 5830 5829 5829 5830 5832 5832 5834 5833 5833 5832 5831 5832 5833 5833 5833 5833 5834 5833 5834 5833 5832 5832 5831 5830 5829 5829 5828 5827 5827 5826 5825
5806 5807 5811 5815 5818 5819 5821 5823 5825 5825 5826 5826 5826 5826 5826 5827 5828 5828 5829 5829 5829 5829 5829 5830 5830 5831 5831 5832 5832 5831 5832 5831 5829 5829 5829 5828 5827 5826 5825 5824 5823 5823 5822
5799 5802 5805 5809 5812 5814 5817 5819 5820 5821 5821 5822 5822 5822 5822 5823 5824 5824 5825 5826 5826 5827 5828 5827 5828 5828 5828 5830 5831 5828 5829 5828 5827 5826 5827 5826 5825 5823 5822 5821 5821 5820 5819
5794 5796 5800 5803 5805 5810 5812 5814 5816 5817 5818 5819 5819 5818 5818 5818 5819 5820 5822 5822 5823 5824 5825 5825 5826 5826 5825 5827 5826 5826 5825 5825 5826 5825 5824 5823 5822 5821 5820 5820 5819 5818 5817
5791 5791 5793 5797 5801 5805 5808 5810 5812 5813 5814 5815 5814 5814 5814 5815 5815 5815 5817 5819 5820 5820 5821 5821 5822 5823 5823 5824 5824 5824 5824 5824 5823 5823 5823 5821 5819 5818 5817 5817 5816 5815 5814
5774 5785 5788 5793 5798 5801 5803 5806 5808 5809 5810 5810 5810 5809 5810 5811 5811 5811 5815 5816 5817 5818 5818 5818 5819 5819 5820 5821 5822 5823 5822 5822 5821 5821 5819 5818 5818 5818 5816 5814 5812 5812 5811
5773 5781 5786 5790 5793 5796 5799 5801 5802 5803 5803 5804 5806 5806 5808 5807 5807 5809 5812 5814 5814 5814 5815 5815 5816 5817 5819 5819 5820 5821 5821 5819 5818 5817 5816 5816 5815 5815 5812 5810 5810 5808 5807
5774 5779 5784 5786 5788 5792 5795 5796 5798 5799 5798 5799 5801 5802 5804 5803 5802 5804 5808 5810 5811 5811 5812 5813 5815 5816 5817 5817 5818 5819 5819 5817 5816 5815 5815 5814 5813 5810 5808 5806 5805 5804 5804
5774 5774 5777 5780 5783 5787 5789 5792 5793 5793 5792 5795 5795 5797 5798 5798 5798 5802 5805 5806 5807 5808 5810 5811 5814 5814 5816 5816 5817 5816 5816 5815 5815 5815 5813 5810 5808 5806 5803 5800 5799 5798 5798
5772 5774 5775 5775 5778 5779 5783 5782 5786 5784 5786 5784 5790 5790 5791 5792 5794 5796 5798 5801 5805 5807 5809 5811 5812 5813 5814 5814 5814 5814 5814 5813 5811 5810 5809 5807 5805 5800 5798 5796 5794 5792 5790
5770 5771 5771 5772 5774 5776 5776 5777 5778 5779 5779 5782 5784 5783 5784 5787 5789 5791 5794 5799 5803 5805 5807 5808 5810 5811 5811 5811 5811 5811 5810 5808 5806 5804 5803 5802 5799 5795 5793 5791 5788 5785 5783
5763 5766 5766 5769 5770 5766 5772 5769 5770 5773 5776 5776 5776 5776 5778 5781 5784 5788 5790 5798 5801 5804 5806 5806 5808 5809 5809 5809 5808 5807 5805 5802 5800 5799 5797 5796 5793 5791 5788 5785 5783 5780 5778
5759 5760 5761 5764 5766 5769 5770 5770 5768 5771 5771 5771 5773 5773 5777 5780 5781 5784 5791 5797 5800 5803 5804 5804 5806 5807 5806 5806 5805 5803 5800 5797 5797 5797 5794 5792 5789 5786 5783 5781 5777 5775 5773
5755 5755 5756 5759 5761 5764 5766 5767 5767 5768 5767 5768 5769 5772 5776 5779 5781 5785 5791 5796 5799 5800 5802 5804 5804 5803 5802 5802 5801 5798 5799 5796 5793 5791 5789 5785 5782 5779 5777 5774 5772 5769 5765
5750 5751 5754 5753 5755 5758 5760 5761 5761 5762 5761 5763 5768 5771 5775 5778 5783 5785 5790 5794 5797 5799 5799 5802 5800 5800 5798 5796 5797 5795 5793 5791 5789 5786 5783 5780 5777 5773 5770 5767 5763 5760 5756
5748 5749 5751 5751 5753 5756 5756 5756 5756 5759 5763 5767 5769 5773 5775 5780 5784 5786 5788 5791 5794 5796 5797 5796 5795 5795 5794 5793 5792 5790 5789 5786 5784 5780 5777 5775 5771 5766 5762 5758 5755 5751 5747
5747 5748 5749 5752 5752 5755 5757 5761 5762 5766 5768 5767 5768 5775 5780 5783 5784 5787 5787 5790 5792 5794 5794 5791 5792 5790 5790 5788 5786 5785 5783 5780 5777 5774 5771 5766 5762 5759 5755 5750 5746 5742 5739
5752 5754 5755 5756 5757 5761 5761 5762 5764 5764 5765 5768 5773 5777 5780 5781 5784 5786 5788 5789 5790 5790 5790 5788 5788 5786 5785 5783 5782 5779 5776 5774 5771 5768 5764 5759 5754 5749 5743 5742 5736 5733 5729
5757 5758 5759 5757 5759 5761 5762 5763 5764 5766 5769 5771 5774 5778 5778 5780 5783 5785 5785 5787 5786 5786 5786 5784 5783 5781 5780 5779 5776 5773 5770 5767 5763 5759 5754 5749 5744 5738 5732 5727 5724 5723 5720
5759 5759 5759 5760 5761 5763 5765 5765 5766 5769 5770 5771 5774 5776 5777 5779 5781 5782 5782 5782 5783 5783 5779 5778 5777 5775 5773 5772 5768 5765 5761 5761 5756 5749 5743 5736 5731 5726 5722 5716 5712 5707 5704
5760 5761 5762 5762 5764 5766 5767 5769 5769 5769 5769 5770 5771 5773 5776 5777 5779 5779 5778 5778 5777 5776 5774 5773 5770 5768 5766 5763 5760 5755 5750 5744 5740 5738 5730 5725 5720 5713 5708 5705 5701 5696 5691
5760 5761 5761 5762 5763 5764 5765 5766 5767 5768 5767 5769 5771 5772 5773 5774 5774 5773 5773 5773 5771 5769 5769 5766 5762 5760 5758 5755 5751 5745 5738 5732 5724 5716 5713 5712 5707 5702 5697 5692 5687 5683 5678
5761 5761 5762 5762 5763 5763 5765 5766 5767 5767 5768 5768 5769 5770 5770 5770 5770 5769 5768 5767 5766 5763 5761 5757 5754 5752 5748 5744 5740 5735 5728 5721 5715 5708 5702 5699 5696 5692 5686 5680 5673 5667 5661
5761 5761 5761 5762 5762 5763 5763 5764 5764 5764 5764 5765 5766 5765 5764 5766 5766 5765 5761 5761 5757 5754 5751 5749 5746 5742 5737 5733 5727 5721 5716 5712 5707 5700 5692 5681 5678 5673 5670 5666 5661 5654 5645
5759 5759 5759 5760 5760 5761 5761 5761 5761 5760 5761 5761 5761 5761 5761 5760 5758 5756 5754 5752 5750 5746 5744 5739 5736 5732 5727 5723 5718 5711 5706 5700 5695 5687 5682 5675 5667 5660 5653 5648 5642 5635 5628